QLK2220 YSWG-YBBN

Flight info

Callsign QLK2220
Flight time 2h 3m
Altitude 25000
Route WAG DCT MUDGI H66 WHITI DCT BLAKA
Aircraft DH8D/M-SDE2E3FGRY/H

Departure

Time 2026-04-25 01:26
Airport Wagga Wagga Airport (YSWG)

Arrival

Time 2026-04-25 03:29
Airport Brisbane International Airport (YBBN)
Time Latitude Longitude Altitude Speed Heading
2026-04-25 01:13 -35.16019 147.46173 736 ft 0 kts 83°
2026-04-25 01:19 -35.16019 147.46181 736 ft 3 kts 83°
2026-04-25 01:19 -35.16015 147.46199 736 ft 0 kts 75°
2026-04-25 01:19 -35.16011 147.46214 736 ft 2 kts 69°
2026-04-25 01:20 -35.16005 147.46233 736 ft 1 kts 72°
2026-04-25 01:20 -35.16003 147.46242 736 ft 1 kts 82°
2026-04-25 01:20 -35.16016 147.46274 736 ft 4 kts 135°
2026-04-25 01:20 -35.16036 147.46292 736 ft 5 kts 150°
2026-04-25 01:21 -35.16099 147.46333 736 ft 14 kts 153°
2026-04-25 01:21 -35.16179 147.46384 736 ft 12 kts 153°
2026-04-25 01:21 -35.16266 147.46442 736 ft 13 kts 150°
2026-04-25 01:21 -35.16347 147.46493 736 ft 15 kts 154°
2026-04-25 01:22 -35.16462 147.46535 736 ft 16 kts 204°
2026-04-25 01:22 -35.16521 147.46439 736 ft 13 kts 242°
2026-04-25 01:22 -35.16568 147.46332 736 ft 14 kts 242°
2026-04-25 01:22 -35.16627 147.46197 736 ft 18 kts 245°
2026-04-25 01:23 -35.16684 147.46081 736 ft 12 kts 221°
2026-04-25 01:23 -35.16684 147.46043 736 ft 6 kts 38°
2026-04-25 01:23 -35.16672 147.46091 736 ft 5 kts 65°
2026-04-25 01:23 -35.16671 147.46092 736 ft 0 kts 59°
2026-04-25 01:25 -35.16670 147.46094 736 ft 3 kts 60°
2026-04-25 01:25 -35.16552 147.46370 736 ft 82 kts 62°
2026-04-25 01:25 -35.16176 147.47250 793 ft 139 kts 64°
2026-04-25 01:25 -35.15765 147.48363 1279 ft 148 kts 64°
2026-04-25 01:26 -35.15328 147.49506 1883 ft 154 kts 64°
2026-04-25 01:26 -35.14898 147.50647 2602 ft 149 kts 63°
2026-04-25 01:26 -35.14459 147.51788 3239 ft 151 kts 63°
2026-04-25 01:26 -35.14012 147.52953 3754 ft 155 kts 62°
2026-04-25 01:27 -35.13522 147.54115 4272 ft 156 kts 61°
2026-04-25 01:27 -35.13047 147.55281 4813 ft 157 kts 62°
2026-04-25 01:27 -35.12571 147.56485 5333 ft 159 kts 62°
2026-04-25 01:28 -35.11542 147.58881 6370 ft 162 kts 60°
2026-04-25 01:28 -35.11019 147.60094 6880 ft 163 kts 60°
2026-04-25 01:28 -35.10494 147.61320 7376 ft 165 kts 60°
2026-04-25 01:28 -35.09967 147.62555 7868 ft 166 kts 61°
2026-04-25 01:29 -35.09432 147.63820 8356 ft 167 kts 61°
2026-04-25 01:29 -35.08902 147.65068 8828 ft 168 kts 60°
2026-04-25 01:29 -35.08366 147.66336 9294 ft 169 kts 60°
2026-04-25 01:29 -35.07824 147.67621 9751 ft 170 kts 60°
2026-04-25 01:30 -35.07286 147.68895 10184 ft 172 kts 60°
2026-04-25 01:30 -35.06740 147.70189 10618 ft 174 kts 60°
2026-04-25 01:30 -35.06182 147.71507 11047 ft 174 kts 59°
2026-04-25 01:30 -35.05421 147.72606 11423 ft 173 kts 33°
2026-04-25 01:31 -35.04404 147.73407 11835 ft 174 kts 31°
2026-04-25 01:31 -35.03373 147.74200 12225 ft 176 kts 31°
2026-04-25 01:31 -35.02345 147.74988 12614 ft 176 kts 31°
2026-04-25 01:31 -35.01305 147.75786 12973 ft 178 kts 31°
2026-04-25 01:32 -35.00247 147.76601 13340 ft 179 kts 31°
2026-04-25 01:32 -34.99201 147.77406 13669 ft 181 kts 31°
2026-04-25 01:32 -34.98125 147.78235 14011 ft 182 kts 31°
2026-04-25 01:32 -34.97065 147.79053 14346 ft 182 kts 31°
2026-04-25 01:33 -34.95997 147.79878 14656 ft 183 kts 31°
2026-04-25 01:33 -34.94910 147.80718 14985 ft 183 kts 31°
2026-04-25 01:33 -34.93838 147.81545 15289 ft 184 kts 32°
2026-04-25 01:33 -34.92741 147.82391 15583 ft 186 kts 31°
2026-04-25 01:34 -34.91658 147.83228 15876 ft 187 kts 31°
2026-04-25 01:34 -34.90545 147.84087 16160 ft 188 kts 31°
2026-04-25 01:34 -34.89434 147.84944 16439 ft 190 kts 31°
2026-04-25 01:34 -34.88323 147.85802 16716 ft 191 kts 32°
2026-04-25 01:35 -34.87191 147.86675 16982 ft 192 kts 32°
2026-04-25 01:35 -34.86065 147.87544 17219 ft 194 kts 32°
2026-04-25 01:35 -34.84924 147.88425 17471 ft 195 kts 32°
2026-04-25 01:35 -34.83768 147.89316 17731 ft 196 kts 32°
2026-04-25 01:36 -34.82616 147.90202 17968 ft 197 kts 32°
2026-04-25 01:36 -34.81444 147.91106 18209 ft 199 kts 32°
2026-04-25 01:36 -34.80287 147.91997 18448 ft 199 kts 32°
2026-04-25 01:36 -34.79115 147.92900 18684 ft 199 kts 32°
2026-04-25 01:37 -34.77945 147.93800 18909 ft 200 kts 32°
2026-04-25 01:37 -34.76761 147.94711 19121 ft 201 kts 32°
2026-04-25 01:37 -34.75596 147.95607 19340 ft 201 kts 32°
2026-04-25 01:37 -34.74407 147.96523 19543 ft 202 kts 33°
2026-04-25 01:38 -34.73214 147.97440 19766 ft 202 kts 33°
2026-04-25 01:38 -34.72168 147.98242 19958 ft 203 kts 33°
2026-04-25 01:38 -34.71180 147.99002 20121 ft 204 kts 33°
2026-04-25 01:38 -34.69972 147.99930 20313 ft 205 kts 33°
2026-04-25 01:39 -34.68762 148.00859 20493 ft 207 kts 33°
2026-04-25 01:39 -34.67549 148.01791 20707 ft 208 kts 33°
2026-04-25 01:39 -34.66316 148.02739 20915 ft 209 kts 33°
2026-04-25 01:39 -34.65093 148.03676 21117 ft 210 kts 33°
2026-04-25 01:40 -34.63860 148.04622 21330 ft 209 kts 33°
2026-04-25 01:40 -34.62622 148.05572 21531 ft 210 kts 33°
2026-04-25 01:40 -34.61384 148.06519 21720 ft 210 kts 33°
2026-04-25 01:40 -34.60146 148.07468 21893 ft 211 kts 33°
2026-04-25 01:41 -34.58907 148.08417 22054 ft 212 kts 33°
2026-04-25 01:41 -34.57653 148.09376 22217 ft 213 kts 34°
2026-04-25 01:41 -34.56412 148.10326 22370 ft 213 kts 34°
2026-04-25 01:41 -34.55152 148.11290 22519 ft 214 kts 34°
2026-04-25 01:42 -34.53883 148.12260 22665 ft 215 kts 34°
2026-04-25 01:42 -34.52620 148.13225 22815 ft 215 kts 34°
2026-04-25 01:42 -34.51336 148.14206 22963 ft 216 kts 34°
2026-04-25 01:42 -34.50158 148.15295 23068 ft 215 kts 53°
2026-04-25 01:43 -34.49209 148.16684 23137 ft 216 kts 39°
2026-04-25 01:43 -34.47903 148.17601 23244 ft 218 kts 28°
2026-04-25 01:43 -34.46546 148.18437 23342 ft 220 kts 29°
2026-04-25 01:43 -34.45174 148.19331 23384 ft 227 kts 31°
2026-04-25 01:44 -34.43770 148.20288 23402 ft 235 kts 31°
2026-04-25 01:44 -34.42328 148.21303 23409 ft 244 kts 32°
2026-04-25 01:44 -34.40837 148.22377 23410 ft 253 kts 32°
2026-04-25 01:44 -34.39298 148.23506 23409 ft 263 kts 33°
2026-04-25 01:45 -34.37714 148.24677 23408 ft 271 kts 33°
2026-04-25 01:45 -34.36082 148.25891 23407 ft 280 kts 33°
2026-04-25 01:45 -34.34385 148.27162 23406 ft 289 kts 33°
2026-04-25 01:45 -34.32651 148.28465 23405 ft 297 kts 33°
2026-04-25 01:46 -34.30882 148.29797 23404 ft 304 kts 34°
2026-04-25 01:46 -34.29075 148.31161 23406 ft 311 kts 33°
2026-04-25 01:46 -34.27210 148.32570 23406 ft 317 kts 33°
2026-04-25 01:46 -34.25337 148.33986 23406 ft 322 kts 34°
2026-04-25 01:47 -34.23418 148.35437 23405 ft 327 kts 34°
2026-04-25 01:47 -34.21492 148.36893 23403 ft 330 kts 34°
2026-04-25 01:47 -34.19522 148.38384 23405 ft 333 kts 34°
2026-04-25 01:47 -34.17561 148.39865 23405 ft 335 kts 34°
2026-04-25 01:48 -34.15567 148.41373 23405 ft 337 kts 33°
2026-04-25 01:48 -34.13588 148.42868 23407 ft 339 kts 33°
2026-04-25 01:48 -34.11579 148.44386 23408 ft 340 kts 34°
2026-04-25 01:48 -34.09566 148.45905 23406 ft 342 kts 34°
2026-04-25 01:49 -34.07534 148.47438 23407 ft 343 kts 34°
2026-04-25 01:49 -34.05534 148.48947 23409 ft 343 kts 34°
2026-04-25 01:49 -34.03498 148.50481 23407 ft 344 kts 34°
2026-04-25 01:49 -34.01469 148.52011 23407 ft 345 kts 34°
2026-04-25 01:50 -33.99429 148.53546 23400 ft 342 kts 34°
2026-04-25 01:50 -33.97415 148.55060 23398 ft 341 kts 34°
2026-04-25 01:50 -33.95406 148.56570 23398 ft 339 kts 34°
2026-04-25 01:50 -33.93399 148.58079 23397 ft 338 kts 34°
2026-04-25 01:51 -33.91392 148.59587 23394 ft 337 kts 34°
2026-04-25 01:51 -33.89417 148.61072 23390 ft 336 kts 34°
2026-04-25 01:51 -33.87443 148.62553 23389 ft 336 kts 34°
2026-04-25 01:51 -33.85461 148.64040 23389 ft 335 kts 34°
2026-04-25 01:52 -33.83489 148.65518 23386 ft 334 kts 34°
2026-04-25 01:52 -33.81523 148.66992 23388 ft 334 kts 34°
2026-04-25 01:52 -33.79521 148.68494 23389 ft 336 kts 34°
2026-04-25 01:52 -33.77548 148.69972 23390 ft 338 kts 34°
2026-04-25 01:53 -33.75547 148.71471 23392 ft 339 kts 34°
2026-04-25 01:53 -33.73517 148.72989 23392 ft 340 kts 34°
2026-04-25 01:53 -33.71520 148.74481 23389 ft 341 kts 34°
2026-04-25 01:53 -33.69504 148.75987 23390 ft 341 kts 34°
2026-04-25 01:54 -33.67478 148.77501 23392 ft 342 kts 34°
2026-04-25 01:54 -33.65459 148.79009 23391 ft 343 kts 34°
2026-04-25 01:54 -33.63438 148.80515 23392 ft 343 kts 34°
2026-04-25 01:54 -33.61397 148.82036 23392 ft 343 kts 34°
2026-04-25 01:55 -33.59392 148.83530 23394 ft 344 kts 34°
2026-04-25 01:55 -33.57354 148.85046 23395 ft 344 kts 34°
2026-04-25 01:55 -33.55330 148.86552 23394 ft 344 kts 34°
2026-04-25 01:55 -33.53293 148.88068 23398 ft 344 kts 34°
2026-04-25 01:56 -33.51266 148.89574 23399 ft 344 kts 34°
2026-04-25 01:56 -33.49232 148.91084 23400 ft 344 kts 34°
2026-04-25 01:56 -33.47195 148.92596 23401 ft 344 kts 34°
2026-04-25 01:56 -33.45144 148.94119 23407 ft 344 kts 34°
2026-04-25 01:57 -33.41072 148.97137 23408 ft 344 kts 34°
2026-04-25 01:57 -33.39052 148.98634 23407 ft 344 kts 34°
2026-04-25 01:57 -33.37017 149.00140 23409 ft 344 kts 34°
2026-04-25 01:58 -33.34978 149.01649 23411 ft 344 kts 34°
2026-04-25 01:58 -33.32938 149.03157 23411 ft 343 kts 34°
2026-04-25 01:58 -33.30913 149.04654 23412 ft 343 kts 34°
2026-04-25 01:58 -33.28889 149.06149 23409 ft 343 kts 34°
2026-04-25 01:59 -33.26851 149.07654 23406 ft 342 kts 34°
2026-04-25 01:59 -33.24840 149.09139 23405 ft 342 kts 34°
2026-04-25 01:59 -33.22803 149.10640 23398 ft 342 kts 34°
2026-04-25 01:59 -33.20787 149.12126 23398 ft 342 kts 34°
2026-04-25 02:00 -33.18753 149.13625 23402 ft 342 kts 34°
2026-04-25 02:00 -33.16739 149.15108 23400 ft 342 kts 34°
2026-04-25 02:00 -33.14714 149.16599 23399 ft 343 kts 35°
2026-04-25 02:00 -33.12661 149.18108 23400 ft 342 kts 34°
2026-04-25 02:01 -33.10645 149.19589 23398 ft 342 kts 34°
2026-04-25 02:01 -33.08619 149.21078 23394 ft 342 kts 34°
2026-04-25 02:01 -33.06592 149.22566 23391 ft 342 kts 35°
2026-04-25 02:01 -33.04552 149.24063 23390 ft 342 kts 35°
2026-04-25 02:02 -33.02550 149.25531 23389 ft 341 kts 35°
2026-04-25 02:02 -33.00531 149.27011 23390 ft 341 kts 34°
2026-04-25 02:02 -32.98490 149.28507 23391 ft 341 kts 35°
2026-04-25 02:02 -32.96481 149.29977 23394 ft 341 kts 35°
2026-04-25 02:03 -32.94455 149.31459 23392 ft 341 kts 35°
2026-04-25 02:03 -32.92455 149.32922 23393 ft 341 kts 35°
2026-04-25 02:03 -32.90410 149.34418 23391 ft 340 kts 35°
2026-04-25 02:03 -32.88399 149.35887 23392 ft 340 kts 35°
2026-04-25 02:04 -32.86394 149.37352 23394 ft 340 kts 35°
2026-04-25 02:04 -32.84380 149.38821 23390 ft 340 kts 35°
2026-04-25 02:04 -32.82364 149.40292 23391 ft 340 kts 35°
2026-04-25 02:04 -32.80341 149.41768 23389 ft 340 kts 35°
2026-04-25 02:05 -32.78332 149.43231 23391 ft 340 kts 35°
2026-04-25 02:05 -32.76304 149.44708 23351 ft 341 kts 35°
2026-04-25 02:05 -32.74286 149.46179 23386 ft 340 kts 35°
2026-04-25 02:05 -32.72264 149.47649 23398 ft 339 kts 35°
2026-04-25 02:06 -32.70265 149.49103 23399 ft 339 kts 35°
2026-04-25 02:06 -32.68245 149.50569 23395 ft 339 kts 35°
2026-04-25 02:06 -32.66220 149.52040 23394 ft 339 kts 35°
2026-04-25 02:06 -32.64217 149.53494 23394 ft 339 kts 35°
2026-04-25 02:07 -32.62181 149.54964 23398 ft 339 kts 35°
2026-04-25 02:07 -32.60173 149.56419 23405 ft 339 kts 35°
2026-04-25 02:07 -32.58155 149.57881 23400 ft 339 kts 35°
2026-04-25 02:07 -32.56142 149.59351 23402 ft 339 kts 36°
2026-04-25 02:08 -32.54192 149.60875 23400 ft 338 kts 39°
2026-04-25 02:08 -32.52285 149.62511 23395 ft 338 kts 40°
2026-04-25 02:08 -32.50353 149.64157 23393 ft 337 kts 40°
2026-04-25 02:08 -32.48444 149.65784 23398 ft 336 kts 39°
2026-04-25 02:09 -32.46531 149.67409 23397 ft 336 kts 39°
2026-04-25 02:09 -32.44636 149.69014 23393 ft 337 kts 39°
2026-04-25 02:09 -32.42721 149.70633 23398 ft 338 kts 39°
2026-04-25 02:09 -32.40806 149.72250 23398 ft 338 kts 39°
2026-04-25 02:10 -32.38902 149.73854 23397 ft 339 kts 39°
2026-04-25 02:10 -32.36979 149.75473 23395 ft 339 kts 39°
2026-04-25 02:10 -32.35042 149.77101 23396 ft 339 kts 39°
2026-04-25 02:10 -32.33117 149.78717 23395 ft 340 kts 39°
2026-04-25 02:11 -32.31182 149.80342 23389 ft 340 kts 39°
2026-04-25 02:11 -32.29248 149.81963 23393 ft 339 kts 39°
2026-04-25 02:11 -32.27310 149.83588 23387 ft 340 kts 39°
2026-04-25 02:11 -32.25366 149.85216 23390 ft 339 kts 39°
2026-04-25 02:12 -32.23454 149.86816 23389 ft 340 kts 39°
2026-04-25 02:12 -32.21519 149.88435 23373 ft 340 kts 39°
2026-04-25 02:12 -32.19584 149.90053 23359 ft 341 kts 39°
2026-04-25 02:12 -32.17647 149.91681 23371 ft 340 kts 39°
2026-04-25 02:13 -32.15687 149.93315 23367 ft 340 kts 39°
2026-04-25 02:13 -32.13755 149.94926 23364 ft 340 kts 39°
2026-04-25 02:13 -32.11803 149.96553 23367 ft 340 kts 39°
2026-04-25 02:13 -32.09886 149.98151 23368 ft 340 kts 39°
2026-04-25 02:14 -32.07926 149.99782 23370 ft 340 kts 39°
2026-04-25 02:14 -32.06002 150.01384 23373 ft 340 kts 39°
2026-04-25 02:14 -32.04047 150.03012 23372 ft 341 kts 39°
2026-04-25 02:14 -32.02120 150.04614 23365 ft 342 kts 39°
2026-04-25 02:15 -32.00177 150.06230 23363 ft 342 kts 39°
2026-04-25 02:15 -31.98225 150.07852 23366 ft 342 kts 39°
2026-04-25 02:15 -31.96281 150.09467 23371 ft 343 kts 39°
2026-04-25 02:15 -31.94312 150.11101 23371 ft 343 kts 39°
2026-04-25 02:16 -31.92361 150.12720 23370 ft 343 kts 39°
2026-04-25 02:16 -31.90422 150.14328 23368 ft 343 kts 39°
2026-04-25 02:16 -31.88452 150.15961 23363 ft 343 kts 39°
2026-04-25 02:16 -31.86524 150.17558 23365 ft 342 kts 39°
2026-04-25 02:17 -31.84562 150.19182 23366 ft 342 kts 39°
2026-04-25 02:17 -31.82606 150.20801 23359 ft 340 kts 39°
2026-04-25 02:17 -31.80679 150.22394 23361 ft 340 kts 39°
2026-04-25 02:17 -31.79813 150.23111 23357 ft 340 kts 39°
2026-04-25 02:20 -31.76853 150.25557 23357 ft 340 kts 39°
2026-04-25 02:20 -31.74913 150.27159 23358 ft 341 kts 39°
2026-04-25 02:20 -31.72972 150.28761 23360 ft 341 kts 39°
2026-04-25 02:21 -31.71016 150.30374 23363 ft 341 kts 39°
2026-04-25 02:21 -31.69069 150.31979 23361 ft 341 kts 39°
2026-04-25 02:21 -31.67118 150.33588 23360 ft 341 kts 39°
2026-04-25 02:21 -31.65160 150.35200 23363 ft 341 kts 40°
2026-04-25 02:22 -31.63230 150.36789 23361 ft 341 kts 39°
2026-04-25 02:22 -31.61281 150.38393 23363 ft 342 kts 39°
2026-04-25 02:22 -31.59332 150.39995 23362 ft 342 kts 39°
2026-04-25 02:22 -31.57387 150.41594 23365 ft 341 kts 39°
2026-04-25 02:23 -31.55427 150.43204 23359 ft 341 kts 39°
2026-04-25 02:23 -31.53483 150.44800 23359 ft 341 kts 39°
2026-04-25 02:23 -31.51530 150.46402 23359 ft 341 kts 39°
2026-04-25 02:23 -31.49604 150.47981 23354 ft 339 kts 39°
2026-04-25 02:24 -31.47632 150.49597 23358 ft 338 kts 39°
2026-04-25 02:24 -31.45689 150.51190 23360 ft 338 kts 39°
2026-04-25 02:24 -31.43763 150.52768 23356 ft 339 kts 39°
2026-04-25 02:24 -31.41823 150.54356 23354 ft 339 kts 39°
2026-04-25 02:25 -31.39869 150.55955 23354 ft 339 kts 39°
2026-04-25 02:25 -31.38400 150.57156 23356 ft 339 kts 39°
2026-04-25 02:26 -31.37018 150.58285 23351 ft 339 kts 39°
2026-04-25 02:26 -31.35073 150.59874 23354 ft 339 kts 39°
2026-04-25 02:26 -31.35010 150.59926 23354 ft 339 kts 39°
2026-04-25 02:27 -31.34284 150.60519 23384 ft 339 kts 40°
2026-04-25 02:27 -31.32334 150.62112 23397 ft 342 kts 40°
2026-04-25 02:27 -31.30334 150.63747 23403 ft 345 kts 40°
2026-04-25 02:27 -31.28365 150.65355 23404 ft 347 kts 39°
2026-04-25 02:28 -31.26390 150.66966 23398 ft 350 kts 39°
2026-04-25 02:28 -31.24375 150.68608 23386 ft 351 kts 39°
2026-04-25 02:28 -31.22371 150.70239 23370 ft 352 kts 39°
2026-04-25 02:28 -31.20350 150.71884 23358 ft 351 kts 39°
2026-04-25 02:29 -31.18347 150.73512 23361 ft 349 kts 38°
2026-04-25 02:29 -31.16373 150.75114 23361 ft 344 kts 39°
2026-04-25 02:29 -31.14391 150.76726 23370 ft 341 kts 39°
2026-04-25 02:29 -31.12437 150.78310 23367 ft 339 kts 39°
2026-04-25 02:30 -31.10493 150.79887 23380 ft 337 kts 39°
2026-04-25 02:30 -31.08594 150.81429 23380 ft 335 kts 39°
2026-04-25 02:30 -31.06679 150.83002 23381 ft 334 kts 41°
2026-04-25 02:30 -31.04908 150.84763 23386 ft 332 kts 46°
2026-04-25 02:31 -31.03207 150.86545 23385 ft 332 kts 46°
2026-04-25 02:31 -31.01481 150.88351 23387 ft 331 kts 46°
2026-04-25 02:31 -30.99757 150.90160 23382 ft 332 kts 46°
2026-04-25 02:31 -30.98054 150.91940 23384 ft 332 kts 46°
2026-04-25 02:32 -30.96326 150.93744 23389 ft 331 kts 46°
2026-04-25 02:32 -30.94618 150.95523 23385 ft 331 kts 46°
2026-04-25 02:32 -30.92896 150.97317 23382 ft 331 kts 46°
2026-04-25 02:32 -30.91190 150.99094 23377 ft 331 kts 46°
2026-04-25 02:33 -30.89465 151.00886 23377 ft 331 kts 46°
2026-04-25 02:33 -30.87748 151.02670 23376 ft 331 kts 46°
2026-04-25 02:33 -30.86032 151.04451 23374 ft 330 kts 46°
2026-04-25 02:33 -30.84311 151.06238 23373 ft 330 kts 46°
2026-04-25 02:34 -30.82603 151.08009 23376 ft 330 kts 46°
2026-04-25 02:34 -30.80875 151.09799 23376 ft 330 kts 46°
2026-04-25 02:34 -30.79174 151.11562 23376 ft 329 kts 46°
2026-04-25 02:34 -30.77452 151.13345 23377 ft 329 kts 46°
2026-04-25 02:35 -30.75747 151.15109 23376 ft 329 kts 46°
2026-04-25 02:35 -30.74038 151.16876 23372 ft 329 kts 46°
2026-04-25 02:35 -30.72336 151.18636 23371 ft 328 kts 46°
2026-04-25 02:35 -30.70629 151.20398 23374 ft 328 kts 46°
2026-04-25 02:36 -30.68933 151.22151 23372 ft 328 kts 46°
2026-04-25 02:36 -30.67229 151.23910 23371 ft 327 kts 46°
2026-04-25 02:36 -30.65520 151.25671 23376 ft 327 kts 46°
2026-04-25 02:36 -30.63808 151.27437 23378 ft 326 kts 46°
2026-04-25 02:37 -30.62109 151.29189 23377 ft 326 kts 46°
2026-04-25 02:37 -30.60431 151.30919 23378 ft 326 kts 46°
2026-04-25 02:37 -30.58715 151.32684 23371 ft 326 kts 46°
2026-04-25 02:37 -30.57025 151.34425 23370 ft 326 kts 46°
2026-04-25 02:38 -30.55326 151.36173 23367 ft 326 kts 46°
2026-04-25 02:38 -30.53641 151.37904 23370 ft 326 kts 47°
2026-04-25 02:38 -30.51924 151.39668 23374 ft 327 kts 47°
2026-04-25 02:38 -30.50236 151.41402 23374 ft 327 kts 47°
2026-04-25 02:39 -30.48524 151.43161 23378 ft 327 kts 46°
2026-04-25 02:39 -30.46822 151.44907 23377 ft 327 kts 47°
2026-04-25 02:39 -30.45133 151.46639 23379 ft 327 kts 46°
2026-04-25 02:39 -30.43433 151.48381 23374 ft 326 kts 47°
2026-04-25 02:40 -30.41728 151.50128 23375 ft 326 kts 47°
2026-04-25 02:40 -30.40021 151.51877 23379 ft 326 kts 46°
2026-04-25 02:40 -30.38327 151.53612 23384 ft 327 kts 47°
2026-04-25 02:40 -30.36610 151.55368 23382 ft 327 kts 46°
2026-04-25 02:41 -30.34909 151.57108 23380 ft 327 kts 47°
2026-04-25 02:41 -30.33206 151.58849 23382 ft 327 kts 47°
2026-04-25 02:41 -30.31497 151.60594 23379 ft 328 kts 47°
2026-04-25 02:41 -30.29788 151.62340 23378 ft 328 kts 47°
2026-04-25 02:42 -30.28088 151.64075 23380 ft 328 kts 47°
2026-04-25 02:42 -30.26375 151.65823 23382 ft 328 kts 47°
2026-04-25 02:42 -30.24645 151.67587 23376 ft 329 kts 47°
2026-04-25 02:42 -30.22941 151.69324 23376 ft 330 kts 47°
2026-04-25 02:43 -30.21200 151.71097 23376 ft 330 kts 46°
2026-04-25 02:43 -30.19471 151.72856 23379 ft 330 kts 47°
2026-04-25 02:43 -30.17743 151.74614 23377 ft 329 kts 46°
2026-04-25 02:43 -30.16032 151.76353 23373 ft 327 kts 46°
2026-04-25 02:44 -30.14351 151.78062 23382 ft 326 kts 47°
2026-04-25 02:44 -30.12641 151.79799 23383 ft 326 kts 47°
2026-04-25 02:44 -30.10897 151.81572 23380 ft 326 kts 47°
2026-04-25 02:44 -30.09181 151.83315 23384 ft 327 kts 47°
2026-04-25 02:45 -30.07475 151.85046 23384 ft 327 kts 47°
2026-04-25 02:45 -30.05788 151.86758 23381 ft 327 kts 47°
2026-04-25 02:45 -30.04059 151.88512 23375 ft 328 kts 47°
2026-04-25 02:45 -30.02360 151.90233 23377 ft 328 kts 47°
2026-04-25 02:46 -30.00646 151.91968 23379 ft 327 kts 47°
2026-04-25 02:46 -29.98934 151.93701 23384 ft 327 kts 47°
2026-04-25 02:46 -29.97215 151.95441 23382 ft 326 kts 47°
2026-04-25 02:46 -29.95514 151.97159 23382 ft 326 kts 47°
2026-04-25 02:47 -29.93807 151.98885 23380 ft 326 kts 47°
2026-04-25 02:47 -29.92093 152.00618 23377 ft 327 kts 47°
2026-04-25 02:47 -29.90378 152.02350 23380 ft 328 kts 47°
2026-04-25 02:47 -29.88659 152.04086 23386 ft 327 kts 47°
2026-04-25 02:48 -29.86954 152.05806 23377 ft 326 kts 47°
2026-04-25 02:48 -29.85239 152.07533 23371 ft 326 kts 47°
2026-04-25 02:48 -29.83533 152.09255 23380 ft 326 kts 47°
2026-04-25 02:48 -29.81839 152.10962 23380 ft 327 kts 47°
2026-04-25 02:49 -29.80126 152.12688 23382 ft 327 kts 47°
2026-04-25 02:49 -29.78409 152.14415 23386 ft 328 kts 47°
2026-04-25 02:49 -29.76675 152.16159 23382 ft 328 kts 47°
2026-04-25 02:49 -29.74968 152.17879 23380 ft 329 kts 47°
2026-04-25 02:50 -29.73232 152.19623 23382 ft 329 kts 47°
2026-04-25 02:50 -29.71522 152.21341 23377 ft 330 kts 47°
2026-04-25 02:50 -29.69784 152.23086 23372 ft 331 kts 47°
2026-04-25 02:50 -29.68051 152.24826 23364 ft 331 kts 47°
2026-04-25 02:51 -29.66319 152.26562 23359 ft 331 kts 47°
2026-04-25 02:51 -29.64567 152.28319 23369 ft 331 kts 47°
2026-04-25 02:51 -29.62842 152.30048 23361 ft 332 kts 47°
2026-04-25 02:51 -29.61103 152.31789 23364 ft 332 kts 47°
2026-04-25 02:52 -29.59355 152.33539 23362 ft 332 kts 47°
2026-04-25 02:52 -29.57623 152.35272 23361 ft 332 kts 47°
2026-04-25 02:52 -29.55869 152.37027 23354 ft 333 kts 47°
2026-04-25 02:52 -29.54140 152.38756 23352 ft 333 kts 47°
2026-04-25 02:53 -29.52377 152.40517 23347 ft 334 kts 47°
2026-04-25 02:53 -29.50628 152.42264 23352 ft 334 kts 47°
2026-04-25 02:53 -29.48870 152.44020 23347 ft 334 kts 47°
2026-04-25 02:53 -29.47134 152.45749 23341 ft 334 kts 47°
2026-04-25 02:54 -29.45380 152.47501 23348 ft 334 kts 47°
2026-04-25 02:54 -29.43617 152.49258 23344 ft 334 kts 47°
2026-04-25 02:54 -29.41866 152.51001 23344 ft 333 kts 47°
2026-04-25 02:54 -29.40120 152.52742 23337 ft 333 kts 47°
2026-04-25 02:55 -29.38381 152.54474 23339 ft 332 kts 47°
2026-04-25 02:55 -29.36627 152.56220 23341 ft 332 kts 47°
2026-04-25 02:55 -29.34878 152.57960 23336 ft 333 kts 47°
2026-04-25 02:55 -29.33119 152.59709 23338 ft 332 kts 47°
2026-04-25 02:56 -29.31376 152.61440 23329 ft 333 kts 47°
2026-04-25 02:56 -29.29638 152.63168 23336 ft 333 kts 47°
2026-04-25 02:56 -29.27863 152.64929 23341 ft 334 kts 47°
2026-04-25 02:56 -29.26117 152.66663 23343 ft 335 kts 46°
2026-04-25 02:57 -29.24354 152.68408 23341 ft 335 kts 46°
2026-04-25 02:57 -29.22589 152.70160 23339 ft 336 kts 46°
2026-04-25 02:57 -29.20814 152.71918 23333 ft 337 kts 46°
2026-04-25 02:57 -29.19019 152.73698 23339 ft 338 kts 46°
2026-04-25 02:58 -29.17211 152.75386 23318 ft 341 kts 40°
2026-04-25 02:58 -29.15057 152.76594 23345 ft 347 kts 28°
2026-04-25 02:58 -29.12826 152.77669 23341 ft 347 kts 28°
2026-04-25 02:58 -29.10605 152.78735 23334 ft 348 kts 27°
2026-04-25 02:59 -29.08347 152.79816 23332 ft 349 kts 28°
2026-04-25 02:59 -29.06105 152.80890 23333 ft 351 kts 28°
2026-04-25 02:59 -29.03841 152.81978 23335 ft 351 kts 28°
2026-04-25 02:59 -29.01592 152.83060 23335 ft 352 kts 28°
2026-04-25 03:00 -28.99354 152.84139 23331 ft 352 kts 28°
2026-04-25 03:00 -28.97077 152.85234 23335 ft 352 kts 28°
2026-04-25 03:00 -28.94828 152.86319 23331 ft 353 kts 28°
2026-04-25 03:00 -28.92568 152.87408 23329 ft 353 kts 28°
2026-04-25 03:01 -28.90294 152.88504 23332 ft 353 kts 28°
2026-04-25 03:01 -28.88011 152.89606 23327 ft 352 kts 28°
2026-04-25 03:01 -28.85764 152.90688 23325 ft 353 kts 28°
2026-04-25 03:01 -28.83483 152.91786 23320 ft 353 kts 28°
2026-04-25 03:02 -28.81225 152.92873 23316 ft 352 kts 28°
2026-04-25 03:02 -28.78974 152.93956 23314 ft 352 kts 28°
2026-04-25 03:02 -28.76696 152.95053 23319 ft 353 kts 27°
2026-04-25 03:02 -28.74422 152.96149 23318 ft 354 kts 27°
2026-04-25 03:03 -28.72168 152.97234 23310 ft 353 kts 28°
2026-04-25 03:03 -28.69887 152.98328 23316 ft 354 kts 27°
2026-04-25 03:03 -28.67619 152.99419 23315 ft 355 kts 27°
2026-04-25 03:03 -28.65363 153.00502 23316 ft 355 kts 27°
2026-04-25 03:04 -28.63087 153.01596 23313 ft 355 kts 27°
2026-04-25 03:04 -28.60795 153.02695 23309 ft 356 kts 27°
2026-04-25 03:04 -28.58493 153.03798 23311 ft 356 kts 27°
2026-04-25 03:05 -28.53921 153.05989 23313 ft 356 kts 27°
2026-04-25 03:05 -28.51626 153.07088 23314 ft 356 kts 27°
2026-04-25 03:05 -28.49342 153.08182 23309 ft 357 kts 27°
2026-04-25 03:05 -28.47063 153.09271 23310 ft 357 kts 27°
2026-04-25 03:06 -28.44778 153.10365 23304 ft 357 kts 27°
2026-04-25 03:06 -28.42474 153.11465 23299 ft 355 kts 27°
2026-04-25 03:06 -28.40225 153.12538 23306 ft 354 kts 27°
2026-04-25 03:06 -28.37954 153.13623 23312 ft 353 kts 27°
2026-04-25 03:07 -28.35727 153.14687 23302 ft 351 kts 27°
2026-04-25 03:07 -28.33516 153.15739 23302 ft 350 kts 27°
2026-04-25 03:07 -28.31263 153.16815 23306 ft 349 kts 27°
2026-04-25 03:07 -28.29009 153.17891 23299 ft 350 kts 27°
2026-04-25 03:08 -28.26773 153.18956 23291 ft 349 kts 27°
2026-04-25 03:08 -28.24535 153.20023 23298 ft 349 kts 27°
2026-04-25 03:08 -28.22305 153.21085 23297 ft 351 kts 27°
2026-04-25 03:08 -28.20084 153.22092 23276 ft 349 kts 22°
2026-04-25 03:09 -28.17721 153.22636 23303 ft 352 kts 12°
2026-04-25 03:09 -28.15309 153.23047 23296 ft 351 kts 12°
2026-04-25 03:09 -28.12891 153.23462 23291 ft 353 kts 12°
2026-04-25 03:09 -28.10451 153.23872 23288 ft 354 kts 12°
2026-04-25 03:10 -28.08016 153.24287 23281 ft 354 kts 12°
2026-04-25 03:10 -28.05601 153.24701 23278 ft 354 kts 12°
2026-04-25 03:10 -28.03149 153.25119 23279 ft 354 kts 12°
2026-04-25 03:10 -28.00717 153.25537 23276 ft 355 kts 12°
2026-04-25 03:11 -27.98314 153.25951 23279 ft 354 kts 11°
2026-04-25 03:11 -27.95905 153.26364 23271 ft 351 kts 12°
2026-04-25 03:11 -27.93505 153.26776 23265 ft 351 kts 12°
2026-04-25 03:11 -27.91089 153.27226 23152 ft 350 kts 13°
2026-04-25 03:12 -27.88712 153.27647 22686 ft 355 kts 11°
2026-04-25 03:12 -27.86272 153.28055 22195 ft 357 kts 12°
2026-04-25 03:12 -27.83843 153.28462 21653 ft 357 kts 11°
2026-04-25 03:12 -27.81372 153.28880 21058 ft 358 kts 12°
2026-04-25 03:13 -27.79070 153.29272 20495 ft 355 kts 11°
2026-04-25 03:13 -27.76757 153.29666 19933 ft 354 kts 12°
2026-04-25 03:13 -27.74245 153.30093 19315 ft 352 kts 12°
2026-04-25 03:13 -27.71866 153.30501 18741 ft 351 kts 12°
2026-04-25 03:14 -27.69470 153.30911 18165 ft 350 kts 12°
2026-04-25 03:14 -27.67236 153.31294 17622 ft 347 kts 12°
2026-04-25 03:14 -27.64845 153.31703 17030 ft 345 kts 12°
2026-04-25 03:14 -27.62450 153.31970 16470 ft 345 kts
2026-04-25 03:15 -27.60099 153.32092 15900 ft 344 kts
2026-04-25 03:15 -27.57751 153.32190 15360 ft 341 kts
2026-04-25 03:15 -27.55389 153.32291 14709 ft 338 kts
2026-04-25 03:15 -27.53053 153.32384 13971 ft 331 kts
2026-04-25 03:16 -27.50785 153.32481 13179 ft 327 kts
2026-04-25 03:16 -27.48544 153.32582 12317 ft 323 kts
2026-04-25 03:16 -27.46280 153.32684 11429 ft 322 kts
2026-04-25 03:16 -27.44075 153.32787 10574 ft 318 kts
2026-04-25 03:17 -27.41880 153.32887 9967 ft 307 kts
2026-04-25 03:17 -27.39821 153.32982 9478 ft 293 kts
2026-04-25 03:17 -27.37837 153.33070 9181 ft 280 kts
2026-04-25 03:17 -27.35900 153.33215 8930 ft 276 kts 13°
2026-04-25 03:18 -27.34126 153.33928 8711 ft 268 kts 31°
2026-04-25 03:18 -27.32437 153.34822 8479 ft 268 kts 29°
2026-04-25 03:18 -27.30719 153.35692 8239 ft 269 kts 29°
2026-04-25 03:18 -27.28985 153.36502 8011 ft 269 kts 27°
2026-04-25 03:19 -27.27303 153.37357 7760 ft 266 kts 30°
2026-04-25 03:19 -27.25638 153.38245 7530 ft 262 kts 30°
2026-04-25 03:19 -27.23970 153.39121 7294 ft 259 kts 30°
2026-04-25 03:19 -27.22342 153.39973 7060 ft 256 kts 30°
2026-04-25 03:20 -27.20696 153.40745 6733 ft 260 kts 20°
2026-04-25 03:20 -27.18908 153.40662 6518 ft 266 kts 343°
2026-04-25 03:20 -27.17362 153.39516 6323 ft 264 kts 322°
2026-04-25 03:20 -27.15976 153.38214 6084 ft 251 kts 322°
2026-04-25 03:21 -27.14678 153.36978 5860 ft 238 kts 322°
2026-04-25 03:21 -27.13431 153.35715 5571 ft 250 kts 312°
2026-04-25 03:21 -27.12767 153.33937 5339 ft 248 kts 270°
2026-04-25 03:21 -27.13156 153.32152 5171 ft 238 kts 240°
2026-04-25 03:22 -27.13885 153.30469 4962 ft 243 kts 239°
2026-04-25 03:22 -27.14626 153.28767 4744 ft 245 kts 238°
2026-04-25 03:22 -27.15369 153.27052 4497 ft 236 kts 242°
2026-04-25 03:22 -27.15981 153.25404 4176 ft 222 kts 230°
2026-04-25 03:23 -27.17088 153.24556 4012 ft 176 kts 181°
2026-04-25 03:23 -27.18263 153.24269 3961 ft 173 kts 198°
2026-04-25 03:23 -27.19316 153.23618 3972 ft 173 kts 196°
2026-04-25 03:23 -27.20447 153.23093 3900 ft 182 kts 195°
2026-04-25 03:24 -27.21604 153.22447 3625 ft 193 kts 200°
2026-04-25 03:24 -27.22810 153.21774 3294 ft 192 kts 198°
2026-04-25 03:24 -27.23979 153.21117 2953 ft 184 kts 199°
2026-04-25 03:24 -27.25093 153.20476 2671 ft 174 kts 198°
2026-04-25 03:25 -27.26153 153.19873 2412 ft 163 kts 198°
2026-04-25 03:25 -27.27119 153.19325 2244 ft 155 kts 198°
2026-04-25 03:25 -27.28102 153.18764 2064 ft 157 kts 198°
2026-04-25 03:25 -27.29066 153.18218 1870 ft 157 kts 198°
2026-04-25 03:26 -27.30031 153.17668 1649 ft 154 kts 198°
2026-04-25 03:26 -27.30891 153.17175 1448 ft 149 kts 198°
2026-04-25 03:26 -27.31812 153.16647 1242 ft 142 kts 199°
2026-04-25 03:26 -27.32663 153.16162 1070 ft 140 kts 200°
2026-04-25 03:27 -27.33535 153.15668 913 ft 135 kts 201°
2026-04-25 03:27 -27.34343 153.15205 715 ft 125 kts 200°
2026-04-25 03:27 -27.35100 153.14774 562 ft 119 kts 201°
2026-04-25 03:27 -27.35832 153.14354 408 ft 119 kts 200°
2026-04-25 03:28 -27.36579 153.13943 276 ft 120 kts 204°
2026-04-25 03:28 -27.37314 153.13519 135 ft 124 kts 204°
2026-04-25 03:28 -27.38072 153.13081 32 ft 118 kts 205°
2026-04-25 03:28 -27.38731 153.12709 22 ft 84 kts 204°
2026-04-25 03:29 -27.39152 153.12476 22 ft 66 kts 206°
2026-04-25 03:29 -27.39463 153.12293 22 ft 43 kts 207°
2026-04-25 03:29 -27.39579 153.12125 22 ft 25 kts 284°
2026-04-25 03:29 -27.39512 153.11968 22 ft 13 kts 302°
2026-04-25 03:30 -27.39435 153.11940 22 ft 15 kts 25°
2026-04-25 03:30 -27.39331 153.12007 22 ft 23 kts 39°
2026-04-25 03:30 -27.39242 153.12073 22 ft 7 kts 19°
2026-04-25 03:30 -27.39178 153.12091 22 ft 16 kts 18°
2026-04-25 03:31 -27.39077 153.12126 22 ft 13 kts 349°
2026-04-25 03:31 -27.39035 153.12088 22 ft 14 kts 302°
2026-04-25 03:31 -27.39006 153.12025 22 ft 10 kts 282°
2026-04-25 03:31 -27.39015 153.11946 22 ft 8 kts 223°
2026-04-25 03:32 -27.39046 153.11929 22 ft 4 kts 213°
2026-04-25 03:32 -27.39054 153.11923 22 ft 0 kts 207°